Probability
0 0 0 3 0 0 0 0 0 10 13 13 19 13 13 16 13 13 23 23 32 29 29 26 29 39 45 42 45 48 48 39 39 42 39 45 45 42 35 35 42 39 42 39
0 0 0 0 0 0 0 6 10 6 10 13 16 19 13 16 19 23 26 29 35 39 32 32 32 32 35 35 42 35 42 48 35 39 35 35 42 42 32 32 35 35 39 42
0 0 0 0 0 0 3 6 6 6 10 10 16 23 23 19 29 29 29 35 35 32 32 29 29 26 26 32 29 26 32 39 39 45 48 48 45 42 39 39 39 39 39 35
0 0 0 0 0 6 6 6 6 6 10 16 19 26 26 35 39 39 35 32 39 29 29 29 26 29 26 29 23 29 29 35 35 39 39 35 45 42 39 42 45 39 42 39
0 0 0 0 0 0 3 3 6 10 19 23 26 26 23 32 32 35 39 45 39 35 39 32 32 32 23 23 19 19 26 29 32 35 42 35 35 39 32 35 35 35 35 35
0 0 0 0 3 0 6 10 10 16 16 23 16 19 26 32 29 32 39 35 35 39 39 35 39 39 29 29 32 23 29 29 29 35 35 35 32 29 32 35 35 35 39 35
0 0 3 3 3 0 3 10 10 13 16 19 16 16 16 26 23 26 35 39 42 35 39 45 42 39 39 32 32 23 26 29 23 26 29 32 29 29 32 32 32 32 32 29
0 0 3 6 3 6 3 10 13 16 16 13 19 23 19 19 19 23 29 39 39 35 42 39 39 39 35 35 29 16 16 23 19 23 26 26 23 23 26 26 26 26 29 26
0 3 3 6 10 10 10 16 10 16 16 16 19 16 23 23 26 29 35 39 35 35 35 39 42 35 32 26 26 23 23 16 13 16 19 19 19 23 23 26 29 29 29 26
6 10 13 13 13 10 13 10 19 16 19 13 13 23 26 23 29 29 32 26 29 32 29 35 32 32 26 19 23 23 19 19 16 16 19 13 13 23 26 26 26 29 29 26
10 10 10 6 10 10 6 10 13 19 16 13 13 16 13 26 26 26 19 19 23 29 32 32 35 32 32 26 19 23 19 19 19 19 19 16 16 16 19 23 23 26 26 26
6 6 6 6 6 10 10 6 6 6 10 13 13 13 13 13 16 23 19 19 19 19 29 32 32 26 23 26 23 23 26 23 23 23 19 16 16 10 6 13 13 10 19 19
6 6 3 3 3 3 3 3 6 10 10 13 10 10 10 6 10 10 16 16 19 19 19 26 29 29 16 26 26 23 23 23 23 23 19 19 16 13 10 6 0 0 0 3
6 6 3 3 3 3 6 10 10 13 10 10 6 6 3 6 10 10 10 16 16 23 23 23 26 32 23 19 26 23 19 19 19 16 13 16 16 10 10 10 10 10 0 0
6 3 3 3 3 6 6 13 10 10 6 3 3 3 3 6 6 10 10 16 16 16 19 23 32 32 23 23 23 26 19 19 19 16 16 13 16 13 10 10 10 6 0 0
6 6 6 6 6 6 6 6 10 6 3 3 3 6 6 6 10 10 10 13 16 16 19 19 26 26 26 23 16 16 16 19 19 19 16 16 13 16 16 10 10 6 3 0
6 6 6 6 6 3 3 3 3 3 3 3 6 6 6 6 10 10 10 10 13 16 16 16 16 19 19 23 19 13 16 16 13 16 19 19 16 16 13 13 13 6 6 3
6 6 6 6 6 3 3 3 3 3 3 6 6 6 6 6 10 10 10 10 10 13 16 16 16 16 16 16 19 19 16 19 16 19 16 13 10 13 13 13 13 10 6 3
6 6 6 6 3 3 6 6 6 10 6 6 6 6 6 6 10 10 10 10 13 13 13 13 16 16 13 13 13 16 16 13 13 13 3 3 10 10 10 6 6 6 6 3
6 6 6 6 3 3 3 6 10 10 10 6 6 6 3 3 3 6 6 6 6 6 6 10 13 6 6 10 10 13 13 13 13 6 3 3 6 6 3 6 6 6 6 3
6 6 6 3 3 6 6 6 3 3 3 3 3 0 0 0 0 3 3 3 0 0 3 3 6 6 6 6 10 10 10 10 6 6 3 3 0 0 3 0 0 3 3 3
3 0 0 0 3 3 0 0 0 0 0 0 0 0 0 0 0 3 3 3 3 3 3 3 3 3 6 6 6 3 3 3 0 3 3 0 0 0 0 0 0 0 0 3
0 0 0 0 0 0 0 3 3 0 0 0 0 0 0 0 0 3 3 0 0 0 0 0 0 0 0 3 3 3 3 3 3 3 3 0 0 0 0 0 6 6 6 3
0 0 0 0 0 0 0 0 0 0 0 0 0 0 0 0 0 0 0 0 0 0 0 0 0 0 3 3 3 0 0 3 0 3 0 0 0 0 0 0 0 3 3 3
0 0 0 0 0 0 0 0 0 0 0 0 0 0 0 0 3 0 0 0 0 0 0 0 0 0 0 0 0 0 0 0 0 3 0 0 0 0 0 0 0 0 0 0
0 0 0 0 0 0 0 0 0 0 0 0 0 0 0 3 3 0 0 0 0 0 0 0 0 0 0 0 0 0 0 0 0 3 3 0 0 0 0 0 0 0 0 0
0 0 0 0 0 0 0 0 0 0 0 0 0 0 0 3 0 0 0 0 0 0 0 0 0 0 0 0 0 0 0 0 0 0 0 0 0 0 0 0 0 0 0 0
Height
5855 5859 5862 5865 5868 5871 5873 5875 5877 5880 5881 5884 5884 5886 5888 5888 5888 5889 5890 5889 5889 5890 5891 5891 5892 5892 5891 5890 5890 5889 5888 5887 5886 5885 5885 5885 5884 5884 5884 5883 5883 5882 5881 5880
5848 5852 5855 5859 5862 5865 5867 5870 5871 5873 5876 5879 5880 5881 5883 5884 5884 5885 5886 5885 5885 5886 5887 5887 5888 5888 5887 5887 5886 5885 5884 5883 5882 5882 5882 5881 5881 5881 5880 5880 5879 5879 5878 5877
5840 5845 5848 5852 5856 5859 5861 5863 5865 5867 5870 5872 5874 5876 5878 5878 5880 5881 5881 5881 5881 5882 5883 5883 5884 5884 5883 5883 5882 5881 5880 5879 5879 5878 5878 5877 5877 5877 5876 5876 5875 5875 5874 5873
5832 5837 5840 5847 5850 5852 5854 5857 5859 5861 5864 5866 5869 5871 5872 5873 5875 5876 5877 5877 5878 5878 5878 5878 5879 5879 5879 5878 5877 5877 5876 5875 5875 5874 5873 5872 5872 5872 5871 5871 5870 5870 5869 5868
5824 5827 5832 5838 5842 5845 5847 5849 5852 5854 5857 5860 5862 5864 5866 5867 5868 5870 5871 5872 5874 5874 5874 5873 5873 5873 5874 5873 5873 5872 5872 5871 5870 5870 5869 5868 5868 5867 5866 5866 5865 5865 5864 5863
5815 5819 5823 5831 5835 5837 5841 5842 5846 5847 5850 5853 5855 5857 5860 5861 5863 5864 5866 5867 5868 5869 5869 5869 5869 5868 5868 5868 5868 5868 5867 5866 5865 5865 5864 5863 5863 5862 5861 5861 5860 5859 5858 5858
5806 5810 5815 5822 5826 5830 5833 5836 5839 5841 5843 5846 5848 5851 5853 5855 5856 5858 5859 5860 5861 5862 5862 5863 5863 5863 5863 5863 5862 5862 5862 5861 5860 5860 5859 5858 5857 5856 5855 5854 5853 5853 5852 5851
5797 5801 5809 5813 5816 5820 5823 5827 5830 5833 5836 5838 5841 5843 5845 5847 5849 5851 5852 5853 5854 5855 5856 5856 5857 5857 5857 5856 5856 5856 5855 5855 5855 5854 5853 5853 5852 5851 5850 5849 5848 5847 5846 5844
5789 5794 5799 5803 5807 5810 5814 5818 5822 5825 5828 5831 5833 5836 5838 5840 5842 5843 5844 5846 5847 5848 5848 5848 5849 5850 5850 5849 5849 5849 5849 5849 5848 5848 5847 5847 5846 5845 5844 5843 5842 5841 5840 5838
5778 5783 5789 5794 5797 5801 5805 5809 5813 5817 5820 5823 5825 5828 5830 5832 5834 5836 5837 5838 5839 5840 5840 5841 5842 5842 5842 5842 5841 5842 5842 5842 5842 5841 5841 5840 5839 5838 5838 5836 5835 5834 5833 5831
5768 5773 5778 5783 5788 5792 5796 5800 5804 5808 5811 5814 5816 5819 5821 5823 5825 5827 5829 5830 5831 5832 5833 5834 5834 5834 5834 5834 5834 5835 5835 5835 5835 5834 5834 5833 5832 5831 5830 5829 5828 5827 5825 5824
5759 5764 5768 5773 5777 5782 5786 5790 5794 5798 5801 5804 5807 5810 5812 5814 5816 5818 5820 5821 5823 5824 5825 5826 5826 5827 5827 5827 5827 5827 5828 5828 5828 5827 5827 5826 5825 5824 5823 5822 5820 5819 5817 5816
5749 5753 5757 5762 5767 5771 5775 5779 5783 5788 5792 5795 5797 5800 5802 5804 5806 5808 5810 5812 5813 5815 5816 5817 5818 5818 5819 5819 5819 5820 5820 5820 5820 5820 5819 5818 5817 5816 5815 5814 5812 5810 5808 5806
5738 5741 5746 5751 5755 5760 5763 5767 5772 5777 5781 5784 5787 5790 5792 5794 5796 5798 5800 5802 5804 5805 5807 5808 5808 5809 5810 5811 5811 5812 5812 5812 5812 5812 5811 5810 5809 5808 5807 5805 5804 5801 5799 5797
5729 5732 5737 5741 5745 5748 5753 5757 5762 5767 5770 5774 5777 5779 5782 5784 5786 5788 5790 5792 5794 5796 5797 5798 5799 5800 5801 5802 5803 5803 5804 5804 5804 5803 5802 5801 5800 5799 5798 5796 5795 5793 5790 5788
5720 5723 5727 5731 5734 5738 5743 5747 5752 5757 5760 5763 5765 5768 5771 5774 5776 5778 5780 5782 5784 5786 5787 5788 5790 5791 5792 5793 5794 5795 5795 5795 5795 5794 5793 5792 5791 5790 5788 5787 5785 5783 5781 5779
5710 5713 5717 5721 5724 5728 5732 5737 5742 5746 5749 5752 5755 5758 5761 5763 5766 5768 5770 5772 5774 5776 5778 5779 5781 5782 5782 5783 5784 5785 5786 5786 5786 5785 5784 5783 5782 5780 5779 5777 5776 5774 5772 5770
5699 5703 5707 5711 5714 5718 5723 5728 5732 5735 5739 5742 5746 5748 5751 5753 5756 5758 5760 5763 5764 5766 5768 5769 5771 5772 5773 5774 5775 5776 5776 5776 5776 5775 5774 5773 5772 5771 5769 5768 5766 5765 5763 5760
5691 5694 5698 5701 5705 5710 5715 5719 5723 5727 5730 5733 5736 5739 5741 5744 5747 5749 5751 5753 5755 5757 5758 5760 5761 5762 5764 5765 5765 5766 5766 5766 5767 5766 5764 5763 5762 5761 5759 5758 5756 5754 5752 5750
5684 5687 5691 5694 5698 5703 5707 5711 5714 5717 5721 5724 5727 5730 5732 5735 5737 5740 5742 5744 5746 5747 5749 5750 5752 5753 5755 5756 5756 5757 5757 5757 5757 5756 5755 5754 5753 5751 5750 5748 5746 5744 5742 5741
5678 5682 5685 5688 5692 5697 5700 5704 5706 5709 5712 5715 5718 5721 5724 5726 5728 5730 5733 5735 5737 5738 5739 5741 5743 5744 5746 5747 5747 5748 5748 5748 5748 5747 5746 5744 5743 5742 5740 5738 5736 5734 5733 5731
5674 5677 5680 5683 5687 5690 5694 5697 5700 5703 5705 5708 5711 5714 5716 5718 5720 5722 5724 5727 5728 5729 5730 5732 5734 5735 5737 5738 5738 5739 5739 5739 5738 5737 5736 5735 5734 5733 5731 5729 5727 5726 5724 5722
5669 5673 5676 5679 5682 5685 5688 5691 5695 5697 5699 5702 5704 5707 5709 5711 5713 5714 5716 5718 5719 5720 5721 5723 5725 5726 5728 5729 5729 5730 5730 5730 5729 5729 5728 5727 5725 5723 5722 5720 5718 5716 5715 5713
5666 5668 5671 5674 5677 5680 5683 5686 5689 5691 5694 5696 5698 5700 5702 5704 5705 5707 5709 5710 5711 5712 5713 5715 5716 5718 5719 5720 5720 5721 5721 5721 5721 5720 5719 5717 5716 5714 5713 5711 5709 5707 5705 5703
5662 5664 5667 5670 5672 5675 5678 5680 5683 5685 5687 5689 5691 5693 5695 5697 5699 5700 5702 5703 5704 5705 5706 5707 5709 5709 5710 5711 5712 5712 5712 5712 5711 5710 5710 5708 5707 5706 5704 5702 5701 5699 5697 5694
5659 5661 5663 5665 5668 5671 5673 5675 5677 5678 5680 5682 5684 5686 5689 5690 5692 5693 5695 5696 5697 5697 5698 5700 5701 5701 5702 5703 5703 5703 5703 5703 5702 5701 5700 5699 5698 5697 5696 5694 5692 5690 5688 5685
5655 5657 5659 5662 5664 5666 5667 5669 5671 5672 5674 5676 5678 5680 5682 5684 5685 5687 5688 5689 5689 5690 5691 5692 5693 5694 5694 5694 5694 5694 5694 5694 5693 5693 5692 5691 5690 5689 5687 5685 5683 5681 5679 5676
Wind_Speed
33 31 30 30 29 28 28 28 28 27 25 23 21 19 17 15 14 14 13 12 10 10 10 10 10 10 11 11 12 11 11 11 12 11 10 9 9 9 9 9 9 8 9 9
35 34 33 32 31 29 27 27 28 28 26 23 21 21 19 17 15 14 14 13 10 10 10 11 11 12 13 13 13 13 12 12 12 11 11 11 11 11 11 11 11 11 11 11
37 36 34 34 31 29 29 28 29 30 28 25 24 23 21 20 18 16 15 14 13 12 13 13 14 14 14 14 14 14 13 13 13 13 14 14 14 14 13 14 14 13 13 13
37 37 37 34 32 30 30 30 30 30 29 28 26 25 23 22 21 19 16 15 15 14 15 15 15 15 15 15 15 15 14 14 14 14 14 13 14 16 16 16 16 16 16 16
38 39 38 36 34 32 31 31 30 30 29 28 27 27 24 23 22 20 19 17 17 16 17 17 16 16 16 16 16 15 15 15 15 15 15 15 15 16 16 17 17 17 18 18
38 40 40 36 35 34 33 34 32 32 30 29 28 27 26 25 24 22 21 19 19 19 19 19 18 18 18 17 17 16 16 16 15 15 15 16 17 17 18 19 20 19 20 20
39 40 39 37 36 36 37 35 33 33 31 31 30 29 27 27 26 25 23 23 22 21 20 20 20 20 19 19 18 17 16 16 17 17 17 18 18 18 19 20 21 21 21 22
40 40 39 37 37 38 38 36 35 34 33 31 30 30 30 29 28 27 25 25 24 23 23 22 22 21 21 20 19 19 19 18 18 18 18 19 19 19 20 20 20 21 22 22
40 40 38 37 39 38 37 37 36 35 34 32 31 31 31 30 29 29 28 27 26 26 25 24 23 23 23 22 21 21 21 21 20 20 21 21 21 21 21 21 21 21 22 22
40 39 38 37 37 38 38 37 36 35 35 34 33 33 32 32 31 30 29 30 29 27 26 25 25 25 25 25 24 23 23 23 23 22 22 22 21 21 22 22 22 22 23 24
41 39 39 39 38 38 38 37 37 37 36 35 34 33 32 33 34 32 31 30 30 29 28 27 26 26 25 25 25 25 24 24 24 24 23 23 24 24 24 24 24 25 26 27
41 40 40 39 40 39 39 39 38 37 36 34 33 33 34 34 34 35 34 32 31 31 29 28 28 27 27 26 26 26 25 24 24 24 25 25 25 25 25 26 26 27 28 28
40 40 41 40 41 41 41 41 40 38 37 35 35 35 35 34 34 34 34 34 33 32 31 29 28 28 28 28 28 28 26 25 24 25 25 25 25 26 27 28 28 29 30 30
37 38 40 40 40 39 39 39 40 39 38 37 36 37 36 35 35 34 34 34 34 33 32 31 29 29 29 28 28 28 27 26 26 26 26 26 27 28 28 29 29 30 30 31
36 36 37 38 39 39 39 39 39 38 37 36 36 37 36 36 35 34 34 34 34 33 33 32 30 29 29 29 28 28 28 28 27 28 28 28 29 30 30 30 30 30 30 30
37 37 37 37 37 38 39 38 38 37 37 36 36 36 37 36 35 34 34 34 33 33 33 32 31 31 29 29 29 28 28 28 28 29 30 30 30 30 30 30 31 31 30 30
37 37 35 34 34 35 36 36 36 36 36 36 36 35 36 36 35 34 33 33 32 32 32 31 31 31 30 30 29 29 28 28 29 30 30 30 30 30 30 31 31 31 30 30
33 34 33 33 33 34 34 34 34 34 35 36 36 35 34 35 35 33 33 32 32 31 31 32 32 31 31 31 31 30 30 30 30 30 30 31 31 30 30 31 30 30 29 30
28 29 31 31 31 31 31 32 33 33 34 34 34 34 34 33 33 32 31 31 31 31 31 31 31 31 31 30 31 31 30 30 29 29 30 31 30 30 30 30 31 31 30 30
24 26 28 28 28 29 30 31 31 31 32 33 33 33 33 32 32 31 30 30 30 30 30 31 31 31 31 31 31 31 30 29 29 30 30 30 30 30 31 31 32 32 31 30
21 24 26 25 26 28 29 29 28 27 28 28 29 29 28 29 30 31 30 29 29 30 30 30 30 31 31 31 32 31 31 31 31 31 31 31 30 31 31 31 31 31 30 30
20 22 23 24 26 26 26 26 25 25 26 26 27 27 27 27 28 29 29 28 29 29 30 30 30 30 31 31 31 31 32 32 31 31 30 30 30 30 30 31 31 31 30 30
18 19 20 21 22 22 22 23 23 22 22 23 24 24 25 26 27 27 27 27 27 28 28 28 29 30 30 30 30 30 30 30 30 30 30 30 30 30 30 29 29 29 29 29
17 18 19 21 22 22 21 22 23 22 22 22 22 23 24 24 25 25 25 25 25 26 26 26 26 27 28 28 28 29 29 29 29 29 29 29 29 29 28 27 27 28 29 29
16 17 19 20 21 21 21 22 22 22 22 22 22 22 23 23 23 23 24 24 24 24 24 24 25 26 26 27 27 27 28 28 28 28 27 27 27 27 27 26 27 27 28 29
14 15 16 17 19 19 19 19 20 20 20 21 21 21 22 22 22 22 22 23 23 23 23 24 25 25 26 27 27 27 28 27 27 27 27 27 27 27 27 27 27 28 28 29
12 13 13 14 15 17 17 18 18 18 18 19 20 20 20 21 21 21 21 21 22 22 22 22 23 23 24 25 25 26 26 26 25 25 26 26 26 27 27 28 28 28 29 30
Wind_Direction
226 224 226 230 230 231 235 236 239 243 249 252 257 263 263 265 271 278 282 276 274 279 283 276 274 278 279 281 286 291 293 289 282 282 279 272 276 285 286 288 290 290 291 295
228 227 228 230 232 235 237 237 239 242 244 247 252 257 260 262 269 275 276 274 266 271 276 273 274 278 282 284 286 287 288 291 282 290 288 280 274 280 280 282 284 286 286 288
230 228 230 229 230 234 236 238 240 241 242 245 249 256 259 261 267 272 271 270 268 273 272 272 274 278 283 285 285 286 285 286 286 287 287 282 278 278 276 277 279 281 282 284
230 228 229 228 227 230 233 237 240 242 245 247 251 255 260 261 263 267 267 273 273 270 273 274 276 279 283 285 285 286 288 287 288 285 282 279 277 276 274 273 275 276 278 279
232 229 230 228 228 229 233 237 238 241 244 248 251 252 255 262 264 265 262 266 271 271 271 274 277 280 282 281 282 283 285 287 289 286 284 280 278 277 276 274 273 273 275 278
233 232 231 229 228 230 233 236 237 240 243 247 250 253 257 261 261 262 263 264 267 269 270 271 272 274 274 274 277 280 279 282 286 286 285 285 283 280 279 277 274 273 275 277
233 234 233 230 228 230 234 237 238 241 243 249 250 255 258 259 261 262 264 262 263 264 266 267 268 268 269 270 273 276 276 277 280 284 287 287 287 285 281 279 275 275 276 278
235 237 235 232 230 231 235 237 238 241 244 247 247 251 255 258 261 263 262 260 261 262 263 264 266 268 270 269 270 271 274 277 278 282 284 285 286 287 286 285 283 281 281 282
236 237 237 235 233 232 234 236 238 241 244 244 245 248 252 255 258 261 263 261 260 261 263 262 263 267 269 269 268 269 271 274 277 280 281 282 283 283 284 283 284 286 287 287
237 237 236 235 234 232 233 235 237 239 242 244 244 247 250 254 257 260 262 261 260 261 263 263 263 264 267 268 267 267 270 273 275 278 281 282 282 282 283 284 284 286 287 288
238 239 239 236 234 234 233 233 237 238 240 242 245 248 251 253 255 257 259 258 259 261 263 264 264 264 265 267 269 269 269 271 273 274 277 280 281 283 285 285 286 286 286 286
238 239 239 237 234 234 235 236 237 239 240 241 244 247 250 251 254 255 256 257 258 260 261 262 262 264 264 266 268 270 270 271 272 275 277 279 281 282 283 284 286 288 287 287
238 239 237 236 235 235 238 238 237 239 241 242 243 245 248 251 253 256 256 257 258 259 260 260 261 263 265 267 268 269 270 271 272 275 277 279 280 282 282 283 286 289 289 288
238 238 237 237 238 235 237 239 239 241 242 242 243 246 248 251 252 254 256 256 256 258 259 260 260 261 264 267 267 268 270 272 274 276 277 279 281 282 283 284 285 288 290 289
236 236 237 238 240 238 237 238 239 240 243 243 243 245 247 249 251 253 255 256 257 257 257 259 260 261 262 265 265 266 269 271 273 276 278 280 281 282 284 285 286 287 289 289
239 240 239 240 240 238 236 237 238 240 242 242 243 245 246 248 250 252 255 255 256 256 256 257 258 260 261 263 265 266 268 270 273 276 279 280 281 282 283 284 285 286 287 288
240 240 239 238 239 236 235 236 237 239 239 240 243 245 246 247 249 251 254 256 256 256 255 255 257 259 260 262 263 264 266 270 273 276 278 280 281 282 282 283 284 286 286 287
241 238 236 236 236 235 234 234 235 238 239 240 243 245 248 248 248 250 253 255 257 258 257 257 257 258 260 261 263 264 266 269 272 274 276 278 279 281 282 283 283 283 284 286
235 232 231 233 233 233 233 234 236 238 239 240 242 245 248 249 250 252 254 257 258 257 255 257 258 259 260 261 262 264 266 268 272 275 278 278 279 281 282 282 281 281 281 284
232 227 226 228 228 230 233 235 237 238 239 241 242 245 248 250 252 254 255 257 259 257 255 256 258 259 259 260 263 267 269 270 273 276 279 279 279 280 282 284 284 283 283 285
230 227 228 227 228 230 232 234 237 239 238 240 242 245 248 252 254 254 255 256 258 257 255 255 256 258 259 262 264 267 270 272 275 277 278 278 279 281 282 284 284 285 285 288
224 225 227 228 229 231 232 233 236 240 239 241 243 245 247 249 252 254 256 256 257 256 254 254 256 258 259 261 264 266 269 271 274 277 278 279 281 283 285 286 286 287 289 290
224 228 231 231 232 234 236 236 238 242 242 242 244 245 247 250 253 255 255 255 256 255 255 256 256 257 259 262 264 266 269 271 273 276 278 280 282 285 287 288 287 288 291 292
225 229 231 232 234 237 238 239 241 244 245 244 245 247 248 251 253 253 253 253 256 256 255 255 256 257 259 261 264 266 268 271 273 276 279 281 282 284 286 288 290 291 292 292
227 230 232 233 237 241 242 242 243 245 245 246 247 247 248 248 249 252 254 255 256 254 254 255 257 259 261 263 266 268 270 271 273 276 278 281 282 282 285 289 291 292 292 292
223 226 229 233 236 238 241 240 240 243 244 245 247 249 249 248 250 253 255 256 257 257 256 257 259 262 263 265 267 268 270 272 275 277 279 281 282 284 286 289 291 291 292 293
225 227 227 231 234 238 239 239 243 246 247 246 247 247 248 250 252 255 257 260 260 257 257 259 261 263 265 266 267 269 270 273 276 278 280 281 283 284 286 288 289 290 292 294